www.pogodaiklimat.ru

Погода и климат >> Архив погоды >> Иран >> Bandar Deyr


ПОГОДА в Bandar Deyr

  • Прогноз погоды в Bandar Deyr
  • Монитор погоды в Bandar Deyr
  • Климат города

АРХИВ ПОГОДЫ в Bandar Deyr

Время (UTC), дата Ветер
(напр.,м/с)
 
Видим.   Явления Облачность Т
(С)
Тd
(С)
f
(%)
Тe
(С)
Тes
(С)
Комфортность P
(гПа)
Po
(гПа)
Тmin
(С)
Tmax
(С)
R
(мм)
R24
(мм)
S
(см)
18 12.09 З 2 7000 м мгла ясно +34.2 +28.8 74 +58 +58 опасность
перегрева
1006.9 1006.4
21 12.09 С 2 7000 м мгла ясно +32.8 +27.6 74 +52 +52 опасность
перегрева
1006.2 1005.8
00 13.09 С 2 6000 м дымка ясно +31.8 +28.6 83 +54 +54 опасность
перегрева
1005.6 1005.2
03 13.09 СЗ 2 6000 м мгла ясно +30.8 +26.4 77 +47 +47 опасность
перегрева
1006.4 1006.0 +30.8
06 13.09 Ю 2 6000 м мгла ясно +34.6 1007.3 1006.8
09 13.09 Ю 2 6000 м пыль ясно +35.6 +28.6 67 +58 +76 опасность
перегрева
1006.3 1005.8
12 13.09 Ю 2 6000 м мгла ясно +35.7 1004.8 1004.4
15 13.09 Ю 2 5000 м мгла ясно +34.4 +28.2 70 +55 +55 опасность
перегрева
1004.4 1004.0 +36.1
18 13.09 ЮВ 2 5000 м мгла ясно +33.8 +28.7 75 +57 +57 опасность
перегрева
1004.6 1004.2
21 13.09 ЮВ 2 5000 м мгла ясно +33.4 +28.6 76 +56 +56 опасность
перегрева
1004.0 1003.6
00 14.09 С 2 6000 м мгла 4/4 600 м
[St]
+32.2 +27.9 78 +52 +52 опасность
перегрева
1004.0 1003.6
03 14.09 С 2 4000 м мгла 4/4 600 м
[St]
+31.6 +26.3 74 +48 +48 опасность
перегрева
1005.4 1005.0 +31.2
06 14.09 ЮВ 3 5000 м мгла 3/3 600 м
[St]
+34.7 +28.8 72 +58 +65 опасность
перегрева
1005.9 1005.5
09 14.09 Ю 6 6000 м мгла ясно +35.7 +29.5 70 +60 +67 опасность
перегрева
1005.5 1005.1
12 14.09 Ю 5 6000 м мгла ясно +35.3 +29.3 71 1004.0 1003.6
15 14.09 ЮВ 2 6000 м мгла ясно +34.2 +28.6 73 +57 +57 опасность
перегрева
1003.4 1002.9 +35.9
18 14.09 штиль 0 6000 м мгла ясно +33.6 +28.1 73 +55 +55 опасность
перегрева
1004.3 1003.9
21 14.09 С 2 7000 м мгла ясно +32.4 +27.2 74 +51 +51 опасность
перегрева
1003.7 1003.3
03 15.09 С 2 5000 м дымка 4/4 600 м
[St]
+29.4 +25.6 80 +43 +44 опасность
перегрева
1005.2 1004.8 +28.8
06 15.09 ЮЗ 2 6000 м мгла ясно +36.0 1006.7 1006.3
09 15.09 Ю 2 6000 м мгла 5/0
[Ac trans]
+35.6 +28.1 65 +56 +69 опасность
перегрева
1006.0 1005.6
12 15.09 Ю 2 7000 м мгла 5/0
[Ac trans]
+36.0 +27.6 62 +55 +60 опасность
перегрева
1004.2 1003.8
15 15.09 ЮЗ 2 7000 м мгла 4/0
[Ac trans]
+35.0 +26.5 62 +52 +52 опасность
перегрева
1004.3 1003.9 +36.4
18 15.09 штиль 0 7000 м мгла ясно +34.4 +26.7 64 +52 +52 опасность
перегрева
1005.4 1005.0
21 15.09 С 2 7000 м мгла 6/0
[Ac trans]
+33.2 +26.3 67 +49 +49 опасность
перегрева
1004.8 1004.4
00 16.09 С 2 7000 м мгла ясно +31.8 +26.3 73 +48 +48 опасность
перегрева
1003.7 1003.3
03 16.09 СЗ 2 6000 м мгла ясно +29.8 +24.4 73 +42 +42 опасность
перегрева
1004.5 1004.1 +29.8
06 16.09 штиль 0 6000 м мгла ясно +35.2 1006.4 1005.9
09 16.09 Ю 2 6000 м мгла ясно +37.0 +27.5 58 +56 +73 опасность
перегрева
1005.9 1005.4
12 16.09 ЮЗ 3 6000 м мгла ясно +36.6 1005.0 1004.6
15 16.09 ЮЗ 2 6000 м мгла ясно +35.0 +28.0 67 +56 +56 опасность
перегрева
1005.2 1004.8 +37.5
18 16.09 штиль 0 6000 м мгла ясно +34.6 +26.7 64 +52 +52 опасность
перегрева
1005.5 1005.1
21 16.09 штиль 0 6000 м пыль ясно +33.2 +26.6 68 +50 +50 опасность
перегрева
1004.3 1003.9
00 17.09 штиль 0 6000 м мгла ясно +31.2 +24.1 66 +43 +43 опасность
перегрева
1003.9 1003.4
03 17.09 штиль 0 6000 м мгла 8/0
[Ac trans]
+31.4 +24.3 66 +44 +44 опасность
перегрева
1005.3 1004.9 +30.8
06 17.09 ЮВ 2 6000 м мгла ясно +35.6 +26.0 58 1006.3 1005.9
09 17.09 ЮЗ 3 7000 м мгла 4/0
[Ac trans]
+36.6 +27.6 60 +56 +67 опасность
перегрева
1005.7 1005.3
12 17.09 ЮЗ 3 7000 м мгла 4/0
[Ac trans]
+36.6 +27.8 61 +57 +61 опасность
перегрева
1004.7 1004.3
15 17.09 Ю 2 6000 м мгла 5/0
[Ac trans]
+34.6 +27.5 67 +54 +54 опасность
перегрева
1005.1 1004.7 +37.2
18 17.09 ЮЗ 3 8000 м зарница {гроза} 6/3 900 м
[Cb cap Ac As]
+34.7 +28.2 69 +56 +56 опасность
перегрева
1005.9 1005.5
21 17.09 СЗ 3 8000 м мгла {гроза} 4/0
[Ac trans]
+33.7 +26.6 67 +51 +51 опасность
перегрева
1004.7 1004.3
00 18.09 штиль 0 8000 м мгла 3/0
[Ac trans]
+32.1 +26.3 72 +49 +49 опасность
перегрева
1004.2 1003.8
03 18.09 штиль 0 6000 м мгла 8/4 1050 м
[Sc Ac As]
+31.8 +25.8 71 +47 +47 опасность
перегрева
1005.7 1005.3 +31.4
06 18.09 Ю 2 6000 м мгла 8/3 1000 м
[Sc Ac trans]
+35.4 +27.5 64 +55 +59 опасность
перегрева
1007.1 1006.7
09 18.09 Ю 3 6000 м мгла ясно +37.0 +26.3 54 +53 +67 опасность
перегрева
1006.7 1006.3
12 18.09 ЮЗ 3 6000 м мгла ясно +36.4 +27.6 61 1005.6 1005.2
15 18.09 ЮЗ 2 6000 м мгла ясно +34.6 +28.7 72 +58 +58 опасность
перегрева
1005.7 1005.2 +37.5
18 18.09 штиль 0 7000 м мгла ясно +34.2 +27.1 67 +53 +53 опасность
перегрева
1006.4 1006.0
21 18.09 С 2 7000 м мгла ясно +32.8 +25.6 66 +48 +48 опасность
перегрева
1005.9 1005.5
00 19.09 СЗ 2 7000 м мгла ясно +30.8 +23.0 63 +41 +41 опасность
перегрева
1005.0 1004.6
03 19.09 С 2 7000 м мгла ясно +28.9 +21.3 64 +37 +37 очень
душно
1005.8 1005.4 +28.9
06 19.09 СЗ 2 7000 м мгла ясно +35.9 +21.8 44 +44 +55 опасность
перегрева
1007.0 1006.5
09 19.09 ЮЗ 4 7000 м мгла ясно +37.0 +28.4 62 +59 +70 опасность
перегрева
1005.7 1005.3
12 19.09 ЮЗ 4 7000 м мгла ясно +37.8 1003.9 1003.5

 

Местоположение метеостанции Bandar Deyr (Иран): широта 27.83 долгота 51.93 высота над уровнем моря 4 м.

В архиве по умолчанию представлена погода в Bandar Deyr за последнюю неделю. Архивные данные за месяц целиком и за предыдущие месяцы, начиная с января 2011 года, Вы можете получить, выбрав интересующий диапазон дат из раскрывающегося списка и нажав кнопку "Ввод!".

Внимание! Время в таблицах - всемирное. Для получения местного времени необходимо прибавить поправку, которая в Bandar Deyr равна 3.5 ч.

Смотрите также архив погоды в соседних городах и на ближайших метеорологических станциях:

Погода в Bushehr (Иран) (163 км)
Погода в Bushehr Airport (Иран) (167 км)
Погода в Shiraz (Иран) (198 км)
Погода в Fasa (Иран) (213 км)
Погода в Bahrain (Бахрейн) (215 км)
Погода в Khark (Иран) (224 км)
Погода в Dhahran (Саудовская Аравия) (246 км)
Погода в Kish Island (Иран) (251 км)
Погода в King Fahd Int Airport (Саудовская Аравия) (259 км)
Погода в Hamad Int Airport (Катар) (287 км)

Пояснения к столбцам:

Ветер - указаны скорость ветра в м/с - средняя за 10 мин, порывы в срок и между сроками (в фигурных скобках) и направление, откуда дует ветер: С - северный, СВ - северо-восточный, В - восточный, ЮВ - юго-восточный, Ю - южный, ЮЗ - юго-западный, З - западный, СЗ - северо-западный.
Видимость - горизонтальная дальность видимости в метрах или километрах. При видимости от 1 до 10 км при отсутствии осадков обычно наблюдается дымка, при ухудшении видимости до 1 км и менее - туман. В сухую погоду видимость может ухудшаться дымом, пылью или мглою.
Явления - указаны атмосферные явления, наблюдавшиеся в срок или в последний час перед сроком; фигурными скобками обозначены явления, наблюдавшиеся между сроками (за 1-3 часа до срока); квадратными скобками обозначены град или гололедные отложения с указанием их диаметра в мм.
Облачность - указаны через наклонную черту общая и нижняя облачность в баллах и высота нижней границы облаков в метрах; квадратными скобками обозначены формы облаков: Ci - перистые, Cs - перисто-слоистые, Cc - перисто-кучевые, Ac - высококучевые, As - высокослоистые, Sc - слоисто-кучевые, Ns - слоисто-дождевые, Cu - кучевые, Cb - кучево-дождевые. Подробнее классификацию облаков см. в Атласе облаков (PDF).
T - Температура воздуха - температура, измеренная на высоте 2 м над землей.
Td - Температура точки росы - температура, при понижении до которой содержащийся в воздухе водяной пар достигнет насыщения.
f - Относительная влажность воздуха - влажноcть воздуха, измеренная на высоте 2 м над землей.
Te - Эффективная температура - температура, которую ощущает одетый по сезону человек в тени. Характеристика душности погоды. При расчете учитывается влияние влажности воздуха и скорости ветра на теплоощущения человека.
Tes - Эффективная температура на солнце - температура, которую ощущает человек, с поправкой на солнечный нагрев. Характеристика знойности погоды. Зависит от высоты солнца над горизонтом, облачности и скорости ветра. Ночью, в пасмурную погоду, а также при ветре 12 м/с и более поправка равна нулю.
P - Атмосферное давление - приведенное к уровню моря атмосферное давление.
Po - Атмосферное давление - измеренное на уровне метеостанции атмосферное давление.
Tmin - Минимальная температура - минимум температуры воздуха на высоте 2 м над землей.
Tmax - Максимальная температура - максимум температуры воздуха на высоте 2 м над землей.
R - Количество осадков - Количество выпавших осадков за период времени, мм. При наведении курсора мыши на число - период времени, за который выпало указанное количество осадков.
R24 - Количество осадков - Количество выпавших осадков за 24 часа, мм.
S - Снежный покров - Высота снежного покрова, см. При наведении курсора мыши на число - состояние снежного покрова и степень покрытия местности в баллах.